Location: New Frontier Mobile Home Park
(32.8448°N, 116.9675°W)
Time: 23:17:05
(UTC+00:00)

IRS-P3 - Pass Details

Date: 14 July 2020
Orbit: 814 x 819 km, 98.8° (Epoch: 05 August)

Event Time Altitude Azimuth Distance (km) Brightness Sun altitude
Rises 10:19:52 0° 11° (N) 3,346 8.3 -25.4°
Reaches altitude 10° 10:22:13 10° 10° (N) 2,411 7.4 -25.1°
Maximum altitude 10:27:33 80° 285° (WNW) 833 4.0 -24.4°
Enters shadow 10:28:22 64° 217° (SW) 901 4.0 -24.3°
